Weather History for NW Arkansas Airport, AR

Change the Weather History Date:

Sunday, July 7, 2013

  Actual Average Record
Temperature  
Mean Temperature 80 °F -  
Max Temperature 93 °F - - ()
Min Temperature 68 °F - - ()
Cooling Degree Days 14    
Growing Degree Days 30 (Base 50)    
Moisture  
Dew Point 62 °F    
Average Humidity 59    
Maximum Humidity 84    
Minimum Humidity 28    
Precipitation  
Precipitation 0.00 in - - ()
Sea Level Pressure  
Sea Level Pressure 30.00 in    
Wind  
Wind Speed 4 mph (South)    
Max Wind Speed 12 mph    
Max Gust Speed -    
Visibility 10 miles    
Events      
T = Trace of Precipitation, MM = Missing Value Source: NWS Daily Summary

Daily Weather History Graph

Daily Weather History Graph

Search for Another Location

Airport:

Trip Planner

Search our weather history database for the weather conditions in past years. The results will help you decide how hot, cold, wet, or windy it might be!

Date:

Astronomy

Jul. 07, 2013 Rise Set
Actual Time 6:06 AM CDT 8:37 PM CDT
Civil Twilight 5:36 AM CDT 9:07 PM CDT
Nautical Twilight 4:59 AM CDT 9:44 PM CDT
Astronomical Twilight 4:18 AM CDT 10:25 PM CDT
Moon 5:41 AM CDT (7/7) 8:04 PM CDT (7/7)
Length of Visible Light 15h 31m
Length of Day
14h 31m
Waning Crescent, 0% of the Moon is Illuminated
Jul 7
Waning Crescent
Jul 8
New
Jul 15
First Quarter
Jul 22
Full
Jul 29
Last Quarter

Hourly Weather History & Observations

Time (CDT) Temp. Heat Index Dew Point Humidity Pressure Visibility Wind Dir Wind Speed Gust Speed Precip Events Conditions
12:53 AM 69.1 °F - 60.1 °F 73% 29.98 in 10.0 mi SSE 3.5 mph - N/A   Clear
1:53 AM 70.0 °F - 61.0 °F 73% 29.97 in 10.0 mi Calm Calm - N/A   Clear
2:53 AM 70.0 °F - 61.0 °F 73% 29.97 in 10.0 mi Calm Calm - N/A   Clear
3:53 AM 69.1 °F - 62.1 °F 78% 29.98 in 10.0 mi Calm Calm - N/A   Clear
4:53 AM 68.0 °F - 63.0 °F 84% 29.97 in 10.0 mi SSE 5.8 mph - N/A   Clear
5:53 AM 69.1 °F - 64.0 °F 84% 29.99 in 10.0 mi Calm Calm - N/A   Mostly Cloudy
6:53 AM 71.1 °F - 64.9 °F 81% 30.00 in 8.0 mi Calm Calm - N/A   Scattered Clouds
7:53 AM 73.9 °F - 66.0 °F 76% 30.01 in 10.0 mi SSE 6.9 mph - N/A   Clear
8:53 AM 79.0 °F - 66.0 °F 64% 30.03 in 10.0 mi South 10.4 mph - N/A   Clear
9:53 AM 81.0 °F 83.0 °F 66.0 °F 60% 30.03 in 9.0 mi South 10.4 mph - N/A   Clear
10:53 AM 84.0 °F 86.3 °F 66.0 °F 55% 30.04 in 10.0 mi South 11.5 mph - N/A   Clear
11:53 AM 87.1 °F 88.9 °F 64.9 °F 48% 30.04 in 10.0 mi SSW 8.1 mph - N/A   Clear
12:53 PM 87.1 °F 87.8 °F 63.0 °F 44% 30.03 in 9.0 mi South 8.1 mph - N/A   Clear
1:53 PM 89.1 °F 89.0 °F 61.0 °F 39% 30.01 in 10.0 mi South 11.5 mph - N/A   Clear
2:53 PM 89.1 °F 88.8 °F 60.1 °F 38% 30.00 in 10.0 mi SSW 8.1 mph - N/A   Clear
3:53 PM 91.0 °F 90.0 °F 57.9 °F 33% 29.98 in 10.0 mi South 11.5 mph - N/A   Clear
4:53 PM 91.0 °F 88.7 °F 54.0 °F 28% 29.98 in 10.0 mi South 10.4 mph - N/A   Clear
5:53 PM 88.0 °F 87.1 °F 59.0 °F 37% 29.97 in 10.0 mi South 8.1 mph - N/A   Clear
6:53 PM 86.0 °F 86.1 °F 61.0 °F 43% 29.97 in 10.0 mi South 6.9 mph - N/A   Clear
7:53 PM 84.9 °F 85.9 °F 63.0 °F 48% 29.98 in 10.0 mi South 4.6 mph - N/A   Clear
8:53 PM 81.0 °F 82.2 °F 63.0 °F 54% 29.99 in 10.0 mi SSE 3.5 mph - N/A   Clear
9:53 PM 79.0 °F - 64.0 °F 60% 30.00 in 10.0 mi Calm Calm - N/A   Clear
10:53 PM 77.0 °F - 64.0 °F 64% 30.01 in 10.0 mi Calm Calm - N/A   Clear
11:53 PM 72.0 °F - 64.0 °F 76% 30.03 in 10.0 mi Calm Calm - N/A   Clear